Retour au catalogue

DELTA 1 DEB

ActifLEO
NORAD 19316·DEBRIS·🇺🇸 United States

Lancé Jul 29, 1976 depuis Vandenberg Space Force Base

Loading…

Prochains Passages (prochaines 24 heures)

TLE

FraisSource: Space-Track

Époque: Sep 14, 2026, 14:35 UTC

1 19316U 76077FK  26257.60790580  .00000386  00000-0  47493-2 0  9990
2 19316 102.1775  23.5154 0209248 263.4247 164.7846 12.03768918822786

Suivez DELTA 1 DEB en temps réel avec AllMySat

Download on the App Store